    Orbital elements:
    2019 EN2                                                 Earth MOID = 0.0020 AU
    Epoch 2019 Apr. 27.0 TT = JDT 2458600.5                 MPC
    M  99.87994              (2000.0)            P               Q
    n   0.89858368     Peri.  264.84673     +0.22671174     -0.97380129
    a   1.0635642      Node   171.98373     +0.93629133     +0.21290545
    e   0.3109874      Incl.    7.28642     +0.26825422     +0.07988935
    P   1.10           H   27.6           G   0.15           U   6
    Residuals in seconds of arc
    190314 I41  0.2+  1.0+    190315 511  0.4+  0.3+    190316 511  0.2-  0.2+
    190314 I41  1.0-  0.5+    190315 511  0.8+  0.5+    190316 511  0.3-  0.1+
    190314 I41  0.4-  0.2-    190315 511  0.1-  0.2+    190316 511  0.4+  0.4+
    190314 I41  0.1-  0.7+    190315 511  0.7+  0.5+    190316 511  0.1-  0.1+
    190314 I41  0.6+  0.6-    190315 511  0.4+  0.4+    190316 511  0.0   0.1+
    190314 I41  0.0   1.2-    190315 511  0.6+  0.6+    190316 511  0.5+  0.3+
    190314 C95 (1.7-  0.8-)   190315 511  0.6+  0.5+    190316 511  0.4-  0.1+
    190314 C95  1.4-  1.0-    190315 511 (1.6+  1.2+)   190316 511  0.8-  0.1-
    190314 C95 (1.7-  1.3-)   190315 511  0.7+  0.6+    190316 511  0.8+  0.8+
    190315 511  0.4+  0.3+    190315 511  0.7+  0.5+    190316 H21  0.4-  0.2-
    190315 511  1.4+  1.0+    190315 L01 (1.9-  1.2-)   190316 H21  0.4-  0.6-
    190315 511  1.0+  0.7+    190315 L01 (1.8-  1.3-)   190316 H21  0.5-  0.4-
    190315 511  0.6+  0.4+    190315 L01 (2.0-  1.0-)   190316 V01  1.2-  0.9-
    190315 511  1.0+  0.8+    190315 L01 (1.8-  0.9-)   190316 V01  1.1-  1.2-
    190315 511  0.7+  0.6+    190315 L01 (1.7-  0.9-)   190316 V01  0.9-  1.0-
    190315 511  1.0+  0.6+    190315 L01 (1.9-  1.1-)   190316 V01  1.5-  0.9-
    190315 511  0.2+  0.3+    190315 L01 (1.5-  0.9-)   190317 J95  0.0   0.9+
    190315 511  0.1+  0.3+    190315 I41 (0.5+  1.6-)   190317 J95  0.0   0.1-
    190315 511  0.7+  0.6+    190315 I41 (0.2+  2.0-)   190317 J95  0.8+  0.7+
    190315 511  0.7+  0.7+    190315 I41 (1.6+  0.8-)   190317 J95  0.1-  0.2-
    190315 511  0.7+  0.7+    190315 I41 (0.2-  1.6-)   190317 H21  0.5+  0.3+
    190315 511  1.2+  0.6+    190315 587  0.9-  1.0-    190317 H21  0.3+  0.4+
    190315 511  0.7+  0.5+    190315 587  0.9-  0.8-    190317 I52  0.1+  0.0
    190315 511  0.7+  0.5+    190315 587  0.6-  0.7-    190317 I52  0.7+  0.0
    190315 511  0.8+  0.7+    190315 595  0.5-  0.4-    190317 I52  0.2+  0.1+
    190315 511  0.9+  0.7+    190316 595  0.4-  0.2-    190317 I52  0.0   0.4+
    190315 511  0.4+  0.3+    190316 595  0.4-  0.5-
    190315 511  0.7+  0.2+    190316 511  0.1-  0.0
    
    Ephemeris:
    2019 EN2                 a,e,i = 1.06, 0.31, 7                   q = 0.7328
    Date    TT    R. A. (2000) Decl.     Delta      r     Elong.  Phase     V
    2019 02 15    23 46 44.1 -24 18 08   0.1605  0.8514    29.4   145.3    30.9
    ...
    2019 03 02    23 50 50.9 -24 55 14   0.06803 0.9286    22.8   155.6    31.3
    ...
    2019 03 10    23 40 29.2 -22 27 42   0.02252 0.9717    18.8   160.8    30.5
    ...
    2019 03 16    12 29 57.2 +33 25 30   0.01155 1.0042   146.6    33.0    19.3
    2019 03 17    12 17 20.3 +30 55 19   0.01709 1.0096   149.7    29.8    20.1
    2019 03 18    12 11 10.3 +29 36 12   0.02268 1.0150   151.1    28.2    20.7
    ...
    2019 03 24    12 00 19.8 +26 55 55   0.05655 1.0469   151.9    26.7    22.7
    ...
    2019 04 01    11 57 31.1 +25 31 30   0.1030  1.0883   148.5    28.6    24.1
    ...
    2019 04 16    11 59 40.6 +22 55 13   0.1965  1.1604   139.9    33.9    25.8
    
    A. U. Tomatic                (C) Copyright 2019 MPC           M.P.E.C. 2019-F05
    

    Read MPEC 2019-F04 Read MPEC 2019-F06


    MPEC number:

    Enter an MPEC number in one of the following forms:

    • 1997-B01 (the full form)
    • J97B01 (the packed version of the full form)
    • B01 (the abbreviated form)